Weather History for KCRG - August, 2014

Change the Weather History Date:

Saturday, August 30, 2014

  Actual Average Record
Temperature  
Mean Temperature 81 °F -  
Max Temperature 90 °F 86 °F 93 °F (1997)
Min Temperature 73 °F 70 °F 70 °F (2010)
Cooling Degree Days 16    
Growing Degree Days 31 (Base 50)    
Moisture  
Dew Point 73 °F    
Average Humidity 77    
Maximum Humidity 94    
Minimum Humidity 61    
Precipitation  
Precipitation 0.00 in - - ()
Sea Level Pressure  
Sea Level Pressure 30.11 in    
Wind  
Wind Speed 4 mph (ENE)    
Max Wind Speed 12 mph    
Max Gust Speed -    
Visibility 10 miles    
Events      
Averages and records for this station are not official NWS values.
T = Trace of Precipitation, MM = Missing Value Source: NWS Daily Summary

Daily Weather History Graph

Daily Weather History Graph

Search for Another Location

Airport or City:

Trip Planner

Search our weather history database for the weather conditions in past years. The results will help you decide how hot, cold, wet, or windy it might be!

Date:

Astronomy

Aug. 30, 2014 Rise Set
Actual Time 7:01 AM EDT 7:51 PM EDT
Civil Twilight 6:37 AM EDT 8:15 PM EDT
Nautical Twilight 6:08 AM EDT 8:44 PM EDT
Astronomical Twilight 5:38 AM EDT 9:14 PM EDT
Moon 11:25 AM EDT (8/30) 10:48 PM EDT (8/30)
Length of Visible Light 13h 38m
Length of Day
12h 49m
Waxing Crescent, 23% of the Moon is Illuminated
Aug 30
Waxing Crescent
Sep 2
First Quarter
Sep 8
Full
Sep 15
Last Quarter
Sep 24
New

Hourly Weather History & Observations

Time (EDT) Temp. Heat Index Dew Point Humidity Pressure Visibility Wind Dir Wind Speed Gust Speed Precip Events Conditions
12:53 AM 77.0 °F - 72.0 °F 84% 30.13 in 10.0 mi South 11.5 mph - N/A   Clear
1:53 AM 77.0 °F - 72.0 °F 84% 30.10 in 10.0 mi Calm Calm - N/A   Scattered Clouds
2:53 AM 75.0 °F - 72.0 °F 90% 30.10 in 10.0 mi Calm Calm - N/A   Clear
4:53 AM 73.9 °F - 71.1 °F 91% 30.09 in 10.0 mi Calm Calm - N/A   Clear
5:53 AM 75.0 °F - 72.0 °F 90% 30.11 in 10.0 mi Calm Calm - N/A   Mostly Cloudy
6:20 AM 73.9 °F - 72.0 °F 93% 30.12 in 10.0 mi NNW 3.5 mph - N/A   Scattered Clouds
6:53 AM 73.0 °F - 71.1 °F 93% 30.12 in 10.0 mi Calm Calm - N/A   Clear
7:53 AM 75.0 °F - 73.0 °F 94% 30.14 in 10.0 mi Calm Calm - N/A   Clear
8:53 AM 79.0 °F - 73.0 °F 82% 30.15 in 10.0 mi Calm Calm - N/A   Scattered Clouds
9:53 AM 82.9 °F 90.2 °F 75.0 °F 77% 30.16 in 10.0 mi NW 4.6 mph - N/A   Clear
10:53 AM 86.0 °F 93.8 °F 73.9 °F 67% 30.16 in 10.0 mi Variable 3.5 mph - N/A   Clear
11:53 AM 88.0 °F 95.6 °F 73.0 °F 61% 30.14 in 10.0 mi NNW 4.6 mph - N/A   Clear
12:53 PM 89.1 °F 98.0 °F 73.9 °F 61% 30.13 in 10.0 mi East 10.4 mph - N/A   Scattered Clouds
1:53 PM 89.1 °F 99.1 °F 75.0 °F 63% 30.12 in 10.0 mi NNE 8.1 mph - N/A   Clear
2:53 PM 89.1 °F 98.0 °F 73.9 °F 61% 30.09 in 10.0 mi ENE 10.4 mph - N/A   Clear
3:53 PM 88.0 °F 96.5 °F 73.9 °F 63% 30.09 in 10.0 mi East 5.8 mph - N/A   Partly Cloudy
4:53 PM 88.0 °F 96.5 °F 73.9 °F 63% 30.08 in 10.0 mi ENE 11.5 mph - N/A   Partly Cloudy
5:53 PM 87.1 °F 95.4 °F 73.9 °F 65% 30.07 in 10.0 mi ESE 6.9 mph - N/A   Clear
6:53 PM 84.9 °F 92.1 °F 73.9 °F 69% 30.07 in 10.0 mi ESE 8.1 mph - N/A   Clear
7:53 PM 82.9 °F 89.4 °F 73.9 °F 74% 30.09 in 10.0 mi SE 4.6 mph - N/A   Clear
8:53 PM 81.0 °F 86.7 °F 75.0 °F 82% 30.10 in 10.0 mi Calm Calm - N/A   Partly Cloudy
9:53 PM 82.0 °F 88.6 °F 75.0 °F 79% 30.12 in 10.0 mi Calm Calm - N/A   Mostly Cloudy
11:53 PM 81.0 °F 86.7 °F 75.0 °F 82% 30.14 in 10.0 mi Calm Calm - N/A   Partly Cloudy